Location: Sawyer Lake
(45.2517°N, 88.7550°W)
Time: 16:12:20
(UTC-06:00)

Daily predictions for brighter satellites

Satellite Brightness Start Highest point End
(mag) Time Altitude Azimuth Time Altitude Azimuth Time Altitude Azimuth
Meteor 2-6 Rocket 4.5 16:39:27 10° SSW 16:45:15 83° W 16:51:14 10° N
Meteor 1-11 Rocket 3.7 16:40:56 10° N 16:46:33 80° E 16:52:04 10° SSE
Meteor 2-13 Rocket 4.4 16:43:11 10° N 16:49:21 77° E 16:55:25 10° SSE
Cosmos 1975 Rocket 3.8 16:45:49 10° SSE 16:49:40 33° E 16:53:32 10° NNE
Cosmos 1606 3.2 16:45:50 10° SSW 16:49:43 67° W 16:53:38 10° N
Ariane Rocket 3.9 16:45:19 10° S 16:50:17 54° W 16:55:15 10° NNW
USA 234 3.3 16:43:44 10° NE 16:50:20 87° SE 16:56:53 10° SW
MSX 4.4 16:46:42 10° SE 16:51:53 36° ENE 16:57:04 10° N
SMAP 3.3 16:48:31 10° SE 16:52:57 46° ENE 16:57:23 10° N
AQUARIUS 4.4 16:49:22 10° SE 16:53:38 46° ENE 16:57:57 10° N
Okean 3 3.7 16:50:07 10° S 16:54:17 52° E 16:58:27 10° NNE
SJ-12 4.1 16:51:01 10° SSE 16:54:56 48° ENE 16:58:56 10° N
NOSS 3-1 (A) 4.3 16:47:45 10° NW 16:55:18 81° SW 17:03:36 10° SSE
Cosmos 2263 Rocket 2.5 16:49:58 10° SW 16:55:33 69° WNW 17:01:12 10° NNE
Thor Agena Rocket 4.0 16:50:48 10° NNE 16:55:44 43° E 17:00:43 10° S
CZ-3B DEB 3.3 16:55:37 10° SSE 16:58:51 24° ESE 17:05:05 10° ENE
Cosmos 1125 Rocket 3.6 16:54:04 10° S 16:59:18 65° ESE 17:04:35 10° NNE
Cosmos 1269 Rocket 4.0 16:55:40 10° NNW 17:01:01 86° ENE 17:06:20 10° SSE
CZ-4 R/B 1.4 16:57:04 10° SSE 17:01:14 69° ENE 17:05:23 10° N
ATLAS 2AS CENTAUR R/B 3.2 16:59:28 10° NNW 17:07:26 53° NE 17:14:59 10° ESE
SL-8 Rocket 4.1 17:02:27 10° N 17:08:29 52° ENE 17:14:26 10° SSE
Cosmos 1812 4.1 17:07:15 10° SE 17:10:00 19° E 17:12:08 13° NE
Cosmos 2251 Rocket 4.1 17:06:05 10° N 17:11:02 36° ENE 17:15:56 10° SE
Cosmos 1633 3.2 17:09:00 10° NNW 17:12:33 59° W 17:16:05 10° S
YAOGAN 1 2.5 17:09:05 10° SSE 17:13:22 67° ENE 17:17:41 10° N
Meteor 1-27 Rocket 4.1 17:07:42 10° SSW 17:13:33 71° WNW 17:19:19 10° N
Abrixas 2.9 17:13:51 10° W 17:16:44 48° N 17:18:36 19° ENE
Cosmos 2366 rocket 4.3 17:11:49 10° N 17:17:55 46° ENE 17:23:58 10° SSE
Cosmos 1975 4.1 17:15:06 10° NNE 17:18:15 21° ENE 17:21:23 10° ESE
Cosmos 2218 Rocket 4.1 17:12:11 10° N 17:18:21 52° ENE 17:24:24 10° SSE
OTV 4 3.0 17:18:10 10° SW 17:20:16 17° S 17:22:20 10° SE
Cosmos 2181 Rocket 4.0 17:14:02 10° S 17:20:21 77° E 17:26:47 10° N
Cosmos 1844 Rocket 3.0 17:17:07 10° S 17:22:25 47° ESE 17:27:30 11° NE
MOS 1 4.4 17:17:41 10° SSE 17:23:21 85° WSW 17:29:03 10° NNW
Cosmos 1378 Rocket 4.0 17:21:20 10° SSW 17:25:36 62° W 17:29:54 10° N
SL-27 R/B 2.8 17:24:41 10° N 17:28:16 46° ENE 17:31:48 10° SE
Cosmos 1844 4.1 17:24:19 10° S 17:29:27 39° ESE 17:33:29 16° NE
Meteor 2-19 Rocket 4.4 17:24:30 10° N 17:30:34 67° E 17:36:34 10° SSE
SKYMED 2 4.3 17:27:57 13° NE 17:31:21 33° E 17:35:15 10° SSE
GEOS 3 Rocket 3.5 17:27:16 10° SE 17:32:20 67° NE 17:37:26 10° NNW
Cosmos 1455 Rocket 3.2 17:30:17 10° N 17:34:33 48° ENE 17:38:49 10° SSE
ISS -2.6 17:34:35 10° SSW 17:37:41 39° SE 17:38:49 28° E
CORIOLIS 4.4 17:36:50 10° S 17:42:14 72° WSW 17:47:40 10° NNW
COSMOS 2406 3.7 17:38:35 10° NNW 17:44:14 63° WSW 17:49:52 10° S
Cosmos 2278 Rocket 2.8 17:42:49 10° SSE 17:47:52 34° ESE 17:50:04 25° ENE
SL-08 R/B 4.5 17:43:19 10° N 17:49:48 81° E 17:56:06 10° S
BREEZE-M DEB (TANK) 4.2 17:42:05 10° W 17:50:28 53° NNW 17:52:05 30° NE
Cosmos 1484 Rocket 2.6 17:52:45 10° SSE 17:56:32 85° ENE 18:00:17 10° NNW
CZ-2C R/B 3.6 17:52:11 10° S 17:56:54 45° W 18:01:47 10° NNW
Cosmos 1238 Rocket 2.0 18:01:12 10° S 18:04:10 80° W 18:04:44 54° N
Genesis I 4.4 18:02:44 10° NNW 18:05:17 27° NNE 18:05:17 27° NNE
Cosmos 2082 Rocket 2.7 18:05:32 10° NNW 18:10:43 36° NE 18:10:50 36° ENE
IDEFIX/ARIANE 42P 4.2 18:07:36 10° SSW 18:12:21 35° W 18:17:06 10° NNW
Nadezhda 3 Rocket 4.0 18:10:02 10° SSE 18:15:59 53° E 18:21:20 14° NNE
Okean 1 3.2 18:12:49 10° S 18:16:52 81° E 18:17:54 49° NNE
Cosmos 1833 Rocket 3.4 18:13:45 10° NNW 18:18:13 34° NE 18:18:13 34° NE
COSMO-SKYMED 1 2.6 18:16:32 20° N 18:19:30 77° WNW 18:23:50 10° SSW
Meteor 2-21 4.3 18:16:15 10° N 18:22:29 77° E 18:28:37 10° SSE
Cosmos 1500 4.3 18:22:21 10° N 18:28:52 19° S 18:30:00 10° S
Meteor 1-18 Rocket 4.5 18:22:14 10° SSW 18:27:49 69° WNW 18:33:34 10° N
Meteor 1-28 Rocket 3.7 18:29:51 50° S 18:29:51 50° S 18:32:43 10° S
USA 234 4.0 18:29:59 27° NNE 18:32:59 42° NNW 18:39:02 10° W
METEOR-M 4.0 18:33:50 10° SSE 18:39:10 87° ENE 18:44:34 10° NNW
Cosmos 1346 Rocket 4.1 18:36:25 10° S 18:38:33 31° S 18:38:33 31° S
NOAA 12 4.2 18:36:47 10° S 18:42:04 75° WSW 18:47:23 10° NNW
NOSS 3-4 (A) 4.2 18:36:24 10° NNW 18:42:42 40° NE 18:42:42 40° NE
NOSS 3-4 (C) 4.2 18:36:30 10° NNW 18:42:47 40° NE 18:42:47 40° NE
Cosmos 1812 4.4 18:42:08 10° SW 18:45:38 32° WNW 18:47:21 22° NNW
Meteor 2-14 Rocket 4.3 18:41:14 10° N 18:47:26 87° E 18:53:35 10° S
NOSS 3-3 (A) 3.9 18:45:13 10° SSW 18:51:26 82° SE 18:52:24 66° NE
NOSS 3-3 (C) 3.9 18:45:20 10° SSW 18:51:32 81° SE 18:52:28 67° ENE
ATLAS 2AS CENTAUR R/B 3.9 18:50:52 10° NW 18:58:28 46° WSW 19:05:33 10° S
FALCON 9 R/B 3.7 18:43:16 10° WSW 18:59:51 40° S 19:01:52 34° SSE
Cosmos 1844 Rocket 4.2 19:01:36 10° WSW 19:06:30 31° NW 19:09:11 21° N
Timation 2 Rocket 4.2 19:04:55 10° NNW 19:11:44 79° WSW 19:13:13 57° S
ISS 0.0 19:11:02 10° W 19:11:30 13° W 19:11:30 13° W
ATLAS 3B CENTAUR R/B 4.4 19:10:49 10° WSW 19:20:06 23° SSW 19:22:04 20° S
Cosmos 2278 Rocket 3.3 19:26:35 10° SW 19:31:52 40° NW 19:31:58 40° NW
CZ-3B DEB 3.4 19:27:30 10° W 19:32:51 61° NNW 19:34:11 56° NNE
Cosmos 2082 Rocket 3.9 19:49:36 10° NW 19:52:44 29° WNW 19:52:44 29° WNW
